TERRA

Last updated on Sat Sep 05 2026 00:02:08 GMT+0000 (Coordinated Universal Time)

1 25994U 99068A 26247.61131659 .00000158 00000+0 41097-4 0 9992 2 25994 97.9386 293.9815 0002139 16.7917 142.9273 14.61154586421204
UTC large
Height (km)
Speed (km/s)
/
Latitude / Longitude
Inclination (degrees)
Orbital Period (minutes)
Azimuth
Elevation
Range (km)
Doppler Factor

Next 0 passes for location: London (51.5072 / 0.1276)

No passes found over London.
TERRA